Wind_Speed
5 4 6 15 16 12 15 30 25 8 8 21 21 19 24 17 19 13 14 14 15 16 16 14 14 12 11 13 14 14 15 17 17 17 18 19 19 19
10 9 11 9 21 22 9 28 26 21 5 26 22 24 19 19 20 16 14 14 13 13 15 12 13 11 11 11 13 14 15 14 14 15 15 16 17 18
18 20 18 24 14 17 20 22 29 25 17 22 28 26 25 25 22 15 11 12 14 11 11 12 11 11 11 10 13 14 13 13 13 13 14 15 16 17
19 21 22 21 22 25 22 21 25 20 32 23 26 28 28 26 25 13 18 15 12 12 10 11 10 10 9 11 11 12 12 11 11 12 14 15 15 16
19 19 19 20 20 21 22 21 21 20 31 31 26 28 26 26 23 16 20 19 16 15 9 10 9 8 8 10 10 10 11 10 11 11 12 13 14 15
21 17 15 15 15 18 21 21 18 28 28 25 25 26 28 26 24 24 25 20 15 14 10 9 8 7 6 8 9 9 9 10 9 8 10 11 12 13
20 14 16 16 17 16 18 22 20 27 29 26 22 25 25 27 25 24 22 20 16 20 15 10 9 7 6 4 6 7 7 8 7 6 7 9 11 12
20 15 16 16 11 13 17 21 25 27 28 25 24 21 24 27 25 27 25 23 14 17 14 14 10 10 10 9 1 2 4 5 5 4 5 9 12 14
24 22 18 22 15 13 10 11 23 20 27 27 28 27 28 30 28 26 25 24 17 17 20 16 15 13 20 11 7 3 1 3 3 2 2 4 6 10
29 26 24 22 20 16 13 9 10 14 14 18 24 26 26 28 28 24 23 21 14 22 24 8 16 11 15 10 8 4 2 1 0 1 2 3 4 4
23 20 19 18 18 21 21 17 12 11 12 13 16 22 22 29 24 22 22 26 14 16 22 7 18 12 12 11 9 6 4 2 1 2 2 1 1 6
18 20 17 17 17 18 20 21 21 17 14 14 15 18 23 25 23 20 20 20 15 10 17 11 18 13 4 11 13 11 8 6 3 2 1 1 2 4
21 20 20 18 19 19 15 18 19 18 16 16 15 15 19 20 22 20 17 15 20 7 15 22 16 20 7 5 18 16 12 9 6 6 4 2 5 3
22 21 21 22 18 19 17 15 14 15 16 16 16 17 19 20 22 20 18 18 15 14 14 21 11 21 15 7 7 16 15 12 6 6 7 5 4 3
23 22 16 17 17 20 19 16 16 15 19 18 18 18 18 17 19 20 18 17 15 11 14 19 19 19 16 13 8 13 17 17 17 15 13 10 7 5
23 20 16 17 19 21 18 19 18 17 19 17 17 17 15 15 16 18 18 17 14 13 15 17 21 16 19 19 13 11 18 12 16 17 13 15 13 12
25 21 20 20 19 18 18 19 19 19 18 16 17 17 20 20 19 17 16 17 12 16 15 15 20 20 15 15 17 16 14 18 17 16 16 17 14 11
25 21 19 20 19 20 19 19 19 21 20 19 18 19 21 22 21 21 20 19 19 17 19 19 17 16 15 18 21 18 19 21 17 18 20 20 16 12
20 19 19 20 20 20 20 20 21 22 20 21 21 20 19 21 22 22 21 22 20 19 20 20 26 21 13 8 10 20 30 23 19 21 23 22 21 16
20 21 21 21 21 21 21 20 19 20 23 22 21 20 20 19 22 21 22 21 21 22 20 22 24 27 23 16 13 18 21 25 24 24 23 21 20 17
22 21 22 23 22 22 21 21 22 21 23 23 22 21 21 22 21 21 22 22 22 22 21 25 31 28 26 21 19 17 18 18 26 23 20 21 21 22
21 21 23 24 23 23 23 23 23 23 23 25 25 24 23 24 24 23 23 22 24 23 24 25 23 24 27 27 23 22 23 22 21 26 28 27 18 11
22 22 21 23 24 22 22 23 24 23 23 24 24 25 24 24 25 24 23 24 23 23 24 23 24 25 26 27 27 23 24 24 21 23 29 33 33 31
Wind_Direction
232 189 186 202 221 239 202 174 161 157 183 169 149 153 147 145 140 147 142 131 115 102 95 89 86 72 68 72 72 72 65 62 57 55 53 55 55 55
230 245 252 189 222 238 236 182 171 169 171 166 158 154 148 147 151 159 138 123 116 110 99 100 95 91 76 73 76 73 68 66 64 58 58 58 57 55
207 219 234 237 228 226 235 189 177 179 152 161 160 157 156 150 156 163 143 131 126 122 122 118 106 95 86 80 77 74 76 70 69 67 63 62 60 58
204 212 218 219 228 218 219 195 188 200 150 146 150 155 158 160 166 164 157 150 134 132 136 117 113 100 94 86 76 77 75 75 67 68 67 65 63 62
199 202 212 214 211 215 205 198 191 166 152 147 152 163 163 163 167 162 167 151 145 146 151 134 128 120 100 96 88 78 77 74 67 63 69 68 68 67
188 190 200 207 217 210 203 197 178 147 150 146 151 164 167 173 170 168 146 159 148 153 140 131 137 140 111 90 102 90 78 75 70 60 66 73 69 68
169 171 180 198 207 209 206 186 176 155 154 152 161 169 168 174 176 170 172 169 168 163 163 180 183 170 149 118 99 103 92 78 71 66 69 71 70 66
165 171 182 197 195 201 199 194 177 165 163 164 170 176 176 178 179 175 177 167 159 182 178 189 198 192 177 181 289 4 121 103 86 60 62 83 78 72
175 178 181 191 193 182 169 176 178 171 181 180 176 181 180 182 185 182 186 182 171 174 182 179 189 187 184 207 265 290 341 153 149 112 48 85 94 69
181 178 188 187 188 186 166 135 152 163 165 169 185 185 189 185 189 188 188 176 184 178 180 147 183 196 198 215 241 290 307 310 197 43 46 85 77 65
183 183 188 186 182 188 194 174 170 153 148 143 162 173 183 180 184 187 180 146 132 168 187 158 179 169 191 213 231 240 266 246 160 61 63 108 335 335
178 187 188 189 190 191 184 187 180 183 175 163 152 151 159 170 179 185 187 172 143 153 198 176 174 175 188 227 222 226 236 218 249 194 19 35 16 50
170 184 192 195 189 182 187 190 196 192 191 188 179 171 176 180 186 184 185 185 178 165 190 193 182 185 195 169 211 222 224 220 244 229 249 299 8 43
174 184 194 192 188 180 180 186 198 195 187 183 178 178 186 188 190 185 185 194 195 205 195 193 183 191 194 190 188 213 214 212 215 235 242 259 287 281
179 183 186 183 179 175 183 181 189 186 175 174 174 180 190 191 193 194 191 204 206 199 190 200 208 198 204 208 214 206 198 221 235 237 229 236 245 260
167 167 167 169 168 175 171 171 179 182 177 176 175 179 178 183 191 198 199 202 204 211 208 207 204 194 212 218 227 219 207 201 221 228 231 229 237 256
165 158 158 163 165 176 181 183 187 185 185 180 180 180 183 184 184 192 193 189 189 195 206 213 213 213 211 224 233 233 230 227 230 225 221 224 235 255
170 159 163 171 176 179 183 194 197 197 195 192 195 196 191 192 190 191 195 197 202 206 206 209 208 209 225 238 233 233 233 237 233 228 224 218 230 238
169 173 175 181 186 187 187 190 196 201 199 199 202 202 202 199 194 196 198 203 213 216 219 212 201 196 198 225 234 233 236 231 230 231 226 224 232 251
189 187 188 190 192 193 196 197 200 203 202 203 205 205 207 204 200 203 207 210 213 219 223 223 213 205 209 216 215 236 240 236 228 231 230 235 245 247
199 195 193 193 197 201 201 200 201 200 201 202 204 206 208 209 211 213 215 219 219 219 220 225 229 232 233 233 233 229 245 237 230 230 235 231 230 234
199 199 195 200 204 204 205 206 205 205 205 206 211 214 213 215 217 220 221 221 224 225 229 236 238 236 233 223 230 236 239 242 243 236 235 236 231 225
198 201 198 204 209 212 212 213 210 210 211 212 213 217 216 215 220 222 225 227 228 229 231 236 238 238 238 225 227 231 233 231 232 238 239 238 239 244
Height
780 782 788 794 799 804 806 810 811 825 835 833 829 830 835 842 848 851 853 856 853 856 855 859 861 867 872 865 864 865 862 861 863 862 861 858 857 857
777 782 789 792 800 802 804 807 809 814 825 824 823 830 835 841 847 850 852 854 856 857 856 863 862 866 870 870 865 864 861 864 865 864 864 862 861 859
781 784 788 794 795 800 804 804 807 811 815 819 823 828 834 840 845 850 850 852 854 859 861 863 864 864 868 870 865 863 864 866 865 866 866 864 862 860
781 784 786 790 794 799 800 801 805 808 809 814 824 829 833 836 842 844 849 851 854 858 865 863 866 865 869 867 866 865 865 866 866 867 866 863 862 861
779 783 785 788 792 795 796 799 802 803 806 811 822 828 832 836 841 844 848 850 851 855 864 864 867 868 868 866 867 867 867 867 866 867 866 865 864 864
777 779 782 786 790 794 795 797 798 800 806 814 821 825 829 835 837 841 848 850 851 855 859 863 866 869 867 867 868 869 868 867 867 869 868 867 866 865
772 776 780 786 789 791 794 794 797 798 804 811 821 824 824 830 833 840 846 848 852 849 856 861 865 867 867 868 868 868 869 868 869 871 871 868 867 866
771 776 781 786 788 789 790 794 795 797 800 809 813 817 819 825 831 834 842 848 849 848 852 859 862 864 866 867 868 868 868 869 871 872 872 869 869 867
770 776 782 785 788 788 789 794 794 795 801 804 807 810 815 820 828 832 836 842 842 844 851 857 861 864 864 866 868 868 868 869 871 871 871 870 869 869
769 773 777 780 783 787 789 793 794 794 797 800 804 807 814 818 826 828 835 837 839 844 849 854 859 862 863 865 867 868 868 869 870 870 870 869 869 868
767 770 773 777 780 783 788 789 793 795 797 800 802 805 812 817 823 828 832 831 840 844 848 851 856 860 861 863 865 866 867 869 870 870 870 869 869 868
765 769 771 773 778 781 784 786 788 793 796 800 803 807 811 816 821 825 829 828 834 843 845 849 853 856 861 860 862 864 866 867 869 869 870 869 868 867
759 765 768 772 776 781 782 784 787 790 794 799 803 805 810 815 820 823 826 828 831 835 840 846 848 852 856 858 858 861 863 865 867 868 868 868 868 866
756 762 766 771 774 776 779 783 786 790 794 798 800 804 808 813 818 821 824 826 829 833 838 841 845 847 851 855 857 857 859 861 863 864 865 866 866 865
756 760 765 768 772 775 778 782 785 789 793 796 799 803 807 812 815 819 823 824 828 832 836 839 842 846 849 851 853 854 857 859 860 861 862 863 863 862
755 759 763 767 772 775 779 783 786 788 791 795 799 802 807 811 814 817 821 824 827 830 834 837 840 843 845 847 850 852 852 854 855 856 858 859 860 860
753 758 763 767 771 775 778 781 784 788 791 794 798 801 805 809 812 815 819 821 823 827 831 834 837 840 843 845 846 848 849 849 851 852 854 854 855 856
751 756 761 765 768 771 775 778 782 785 788 792 796 799 802 805 809 812 815 817 820 824 827 830 834 838 840 840 842 843 844 845 847 847 848 849 850 851
748 753 757 761 765 768 771 774 778 781 786 789 792 795 799 802 805 808 811 814 817 820 823 825 828 831 834 833 835 836 838 839 841 842 842 843 844 846
746 750 754 758 761 764 768 771 775 778 782 785 788 791 795 798 801 804 807 810 813 816 819 821 821 822 824 825 829 830 830 832 834 836 837 839 840 842
742 746 749 753 757 761 764 768 771 774 777 781 784 787 790 794 796 799 803 806 809 811 813 813 814 818 819 823 824 822 824 827 829 831 833 834 835 836
738 742 745 749 753 757 759 763 767 771 773 776 779 782 786 789 791 795 798 800 802 804 806 808 810 812 814 814 814 816 818 820 822 825 827 828 829 828
734 738 741 745 749 753 756 759 762 765 768 772 774 777 781 783 786 789 792 794 796 798 800 801 803 805 805 806 807 809 811 813 815 817 818 819 821 822